Regional Weather Roundup
Issued by NWS Midland/Odessa, TX

Skip options and go directly to product.
Home | Oldest Version | Previous Version | Current Version | All | Text Only | Save Text | Print | Product List | Glossary Off

Skip product version selection by date and time.   

045
ASUS44 KMAF 031910
RWRMAF
MIDLAND AREA WEATHER ROUNDUP
NATIONAL WEATHER SERVICE MIDLAND TX
200 PM CDT THU SEP 03 2015

...IN SOUTHWEST TEXAS AND SOUTHEAST NEW MEXICO...

CITY           SKY/WX    TMP DP  RH WIND       PRES   REMARKS
ALPINE         SUNNY     91  39  16 NE6G16    30.12F
ANDREWS        FAIR      91  53  27 SE14      30.01F
ARTESIA        SUNNY     91  50  24 VRB3      30.00F
BIG SPRING     SUNNY     90  58  33 E7G18     30.01F
CARLSBAD       SUNNY     94  53  25 E10G17    29.97F
DRYDEN           N/A     94  57  28 S12G17    29.95F
FORT STOCKTON  SUNNY     91  52  26 SE12G23   29.98F
GUAD PASS      MOSUNNY   88  51  28 SW8       30.15F
HOBBS          SUNNY     90  50  25 SE13G18   30.04F
MARFA          MOSUNNY   90  50  25 E7        30.10F
MIDLAND AIRPK  SUNNY     93  51  23 S10G22    30.00F
MIDLAND INTL   SUNNY     92  53  26 SE14G22   29.99F
ODESSA         SUNNY     93  51  23 SE12G21   30.01F
PECOS          SUNNY     95  48  19 E10G20    29.95F
PRESIDIO       FAIR      94  56  27 E8        29.95F
SEMINOLE       SUNNY     92  49  22 S9G21     30.02F
SNYDER         MOSUNNY   89  60  36 SE6G17    29.99F
WINK           SUNNY     95  50  21 SE15G24   29.96F
$$
...OTHER STATIONS IN TEXAS...

CITY           SKY/WX    TMP DP  RH WIND       PRES   REMARKS
ABILENE        MOSUNNY   90  62  39 VRB3G21   29.97F
AMARILLO       SUNNY     93  54  26 SW12      29.98F
AUSTIN         PTSUNNY   90  65  43 VRB6      29.92F
BROWNSVILLE    PTSUNNY   88  75  65 SE13      29.88F
CORPUS CHRISTI MOSUNNY   90  72  55 E9G16     29.89F
DALLAS FTW     PTSUNNY   92  63  38 SE12G18   29.94F
DEL RIO        MOSUNNY   93  65  39 SE6       29.89F
EL PASO        PTSUNNY   87  50  27 CALM      30.03F
HOUSTON INT    PTSUNNY   89  72  56 SE7       29.92F
LUBBOCK        MOSUNNY   90  57  32 S13G18    30.00F
SAN ANGELO     MOSUNNY   89  62  40 S6        29.95F
SAN ANTONIO    MOSUNNY   91  67  44 VRB5      29.93F
WACO           PTSUNNY   89  66  46 VRB3      29.94F
WICHITA FALLS  NOT AVBL
$$
...OTHER LOCATIONS IN NEW MEXICO...

CITY           SKY/WX    TMP DP  RH WIND       PRES   REMARKS
ALAMAGORDO     PTSUNNY   84  46  26 W5        30.07F
ALBUQUERQUE    MOSUNNY   81  47  30 VRB3      30.13F
CANNON AFB     SUNNY     90  47  22 SW9       30.03F
CLOVIS         SUNNY     91  48  22 SW12G18   30.04F
HOLLOMAN AFB   PTSUNNY   86  47  25 CALM      30.04F
ROSWELL        SUNNY     94  51  23 E9        29.99F
RUIDOSO        MOSUNNY   77  45  31 SW10G20   30.25F
SANTA FE       MOSUNNY   78  44  29 MISG      30.17F
TRUTH OR CONSE MOSUNNY   83  53  35 VRB3      30.09F
TUCUMCARI      PTSUNNY   93  46  19 W15G21    29.98F
$$

USA.gov is the U.S. government's official web portal to all federal, state and local government web resources and services.